Terug naar catalogus

TITAN 3C TRANSTAGE DEB

LostHEO
NORAD 34163·DEBRIS·🇺🇸 United States

Gelanceerd Dec 21, 1965 vanaf Cape Canaveral Space Force Station

Loading…

Volgende Passages (komende 24 uur)

TLE

VerouderdSource: Space-Track

Epoch: Dec 7, 2025, 10:50 UTC

1 34163U 65108CW  25341.45164660 -.00000085  00000-0  00000-0 0  9998
2 34163  26.5966 101.9498 6703293 204.8699 107.4767  2.49400419 19503

Volg TITAN 3C TRANSTAGE DEB in realtime met AllMySat

Download on the App Store